| time (UTC) | temp C | wind direction | speed KPH | gust KPH | rain 1hr cm | rain 24hr cm | rain mn cm | humidity % | barometer mb |
| 20260507140042 | 7 | 0 | 0.0 | 4.8 | 0.00 | 0.00 | 0.00 | 85 | 1021.7 |
| 20260507135529 | 6 | 304 | 0.0 | 4.8 | 0.00 | 0.00 | 0.00 | 86 | 1021.7 |
| 20260507135029 | 6 | 208 | 0.0 | 4.8 | 0.00 | 0.00 | 0.00 | 86 | 1021.6 |
| 20260507134550 | 6 | 208 | 0.0 | 4.8 | 0.00 | 0.00 | 0.00 | 87 | 1021.7 |
| 20260507134030 | 6 | 208 | 0.0 | 4.8 | 0.00 | 0.00 | 0.00 | 87 | 1021.7 |
| 20260507133529 | 6 | 0 | 0.0 | 4.8 | 0.00 | 0.00 | 0.00 | 88 | 1021.7 |
| 20260507133049 | 6 | 0 | 0.0 | 3.2 | 0.00 | 0.00 | 0.00 | 88 | 1021.8 |
| 20260507132528 | 6 | 0 | 0.0 | 4.8 | 0.00 | 0.00 | 0.00 | 89 | 1021.8 |
| 20260507132028 | 5 | 315 | 0.0 | 4.8 | 0.00 | 0.00 | 0.00 | 89 | 1021.7 |
| 20260507131549 | 5 | 315 | 0.0 | 8.0 | 0.00 | 0.00 | 0.00 | 89 | 1021.7 |
| 20260507131032 | 5 | 0 | 1.6 | 8.0 | 0.00 | 0.00 | 0.00 | 89 | 1021.7 |
| 20260507130528 | 5 | 0 | 0.0 | 6.4 | 0.00 | 0.00 | 0.00 | 89 | 1021.6 |
| 20260507130058 | 5 | 0 | 0.0 | 6.4 | 0.00 | 0.00 | 0.00 | 89 | 1021.7 |
| 20260507125529 | 5 | 301 | 0.0 | 4.8 | 0.00 | 0.00 | 0.00 | 90 | 1021.6 |
| 20260507125029 | 5 | 0 | 0.0 | 4.8 | 0.00 | 0.00 | 0.00 | 90 | 1021.5 |
| 20260507124548 | 5 | 301 | 0.0 | 4.8 | 0.00 | 0.00 | 0.00 | 90 | 1021.4 |
| 20260507124032 | 5 | 0 | 0.0 | 4.8 | 0.00 | 0.00 | 0.00 | 89 | 1021.3 |
| 20260507123529 | 5 | 301 | 1.6 | 4.8 | 0.00 | 0.00 | 0.00 | 90 | 1021.3 |
| 20260507123059 | 5 | 0 | 0.0 | 6.4 | 0.00 | 0.00 | 0.00 | 90 | 1021.1 |
| 20260507122532 | 5 | 0 | 0.0 | 6.4 | 0.00 | 0.00 | 0.00 | 90 | 1021.0 |
| 20260507122029 | 5 | 0 | 0.0 | 4.8 | 0.00 | 0.00 | 0.00 | 90 | 1021.3 |
| 20260507121554 | 5 | 0 | 0.0 | 4.8 | 0.00 | 0.00 | 0.00 | 90 | 1021.1 |
| 20260507121032 | 5 | 0 | 0.0 | 6.4 | 0.00 | 0.00 | 0.00 | 90 | 1021.1 |
| 20260507120529 | 5 | 0 | 0.0 | 6.4 | 0.00 | 0.00 | 0.00 | 90 | 1021.1 |
| 20260507120047 | 5 | 0 | 0.0 | 6.4 | 0.00 | 0.00 | 0.00 | 90 | 1021.1 |
| 20260507115532 | 5 | 0 | 0.0 | 6.4 | 0.00 | 0.00 | 0.00 | 90 | 1021.0 |
| 20260507115028 | 4 | 0 | 0.0 | 3.2 | 0.00 | 0.00 | 0.00 | 90 | 1021.0 |
| 20260507114545 | 5 | 0 | 0.0 | 3.2 | 0.00 | 0.00 | 0.00 | 90 | 1021.0 |
| 20260507114033 | 5 | 0 | 0.0 | 3.2 | 0.00 | 0.00 | 0.00 | 90 | 1021.0 |
| 20260507113529 | 4 | 0 | 0.0 | 1.6 | 0.00 | 0.00 | 0.00 | 90 | 1020.8 |
| 20260507113047 | 4 | 0 | 0.0 | 1.6 | 0.00 | 0.00 | 0.00 | 90 | 1020.9 |
| 20260507112529 | 4 | 0 | 0.0 | 1.6 | 0.00 | 0.00 | 0.00 | 90 | 1020.8 |
| 20260507112029 | 4 | 0 | 0.0 | 3.2 | 0.00 | 0.00 | 0.00 | 90 | 1020.8 |
| 20260507111544 | 4 | 0 | 0.0 | 3.2 | 0.00 | 0.00 | 0.00 | 91 | 1020.8 |
| 20260507111028 | 3 | 0 | 0.0 | 3.2 | 0.00 | 0.00 | 0.00 | 91 | 1020.9 |
| 20260507110529 | 3 | 0 | 0.0 | 3.2 | 0.00 | 0.00 | 0.00 | 89 | 1020.9 |
| 20260507110054 | 2 | 0 | 0.0 | 0.0 | 0.00 | 0.00 | 0.00 | 88 | 1020.9 |
| 20260507105532 | 2 | 0 | 0.0 | 0.0 | 0.00 | 0.00 | 0.00 | 87 | 1020.9 |
| 20260507105029 | 2 | 0 | 0.0 | 0.0 | 0.00 | 0.00 | 0.00 | 87 | 1021.0 |
| 20260507104548 | 3 | 0 | 0.0 | 0.0 | 0.00 | 0.00 | 0.00 | 87 | 1020.9 |
| 20260507104029 | 3 | 0 | 0.0 | 0.0 | 0.00 | 0.00 | 0.00 | 87 | 1020.9 |
| 20260507103534 | 3 | 0 | 0.0 | 0.0 | 0.00 | 0.00 | 0.00 | 87 | 1021.0 |
| 20260507103112 | 3 | 0 | 0.0 | 0.0 | 0.00 | 0.00 | 0.00 | 87 | 1020.9 |
| 20260507102529 | 3 | 0 | 0.0 | 0.0 | 0.00 | 0.00 | 0.00 | 87 | 1021.0 |
| 20260507102032 | 3 | 0 | 0.0 | 0.0 | 0.00 | 0.00 | 0.00 | 87 | 1020.9 |
| 20260507101545 | 3 | 0 | 0.0 | 0.0 | 0.00 | 0.00 | 0.00 | 87 | 1020.9 |
| 20260507101032 | 3 | 0 | 0.0 | 0.0 | 0.00 | 0.00 | 0.00 | 87 | 1021.1 |
| 20260507100531 | 3 | 0 | 0.0 | 0.0 | 0.00 | 0.00 | 0.00 | 86 | 1021.1 |
| 20260507100058 | 3 | 0 | 0.0 | 0.0 | 0.00 | 0.00 | 0.00 | 86 | 1021.0 |
| 20260507095534 | 3 | 0 | 0.0 | 0.0 | 0.00 | 0.00 | 0.00 | 85 | 1021.1 |
| 20260507095034 | 3 | 0 | 0.0 | 1.6 | 0.00 | 0.00 | 0.00 | 85 | 1021.0 |
| 20260507094547 | 3 | 0 | 0.0 | 1.6 | 0.00 | 0.00 | 0.00 | 85 | 1020.9 |
| 20260507094028 | 3 | 0 | 0.0 | 0.0 | 0.00 | 0.00 | 0.00 | 84 | 1021.0 |
| 20260507093531 | 3 | 0 | 0.0 | 4.8 | 0.00 | 0.00 | 0.00 | 84 | 1020.9 |
| 20260507093042 | 3 | 0 | 0.0 | 4.8 | 0.00 | 0.00 | 0.00 | 83 | 1020.9 |
| 20260507092531 | 4 | 0 | 0.0 | 0.0 | 0.00 | 0.00 | 0.00 | 81 | 1020.8 |
| 20260507092028 | 4 | 0 | 0.0 | 0.0 | 0.00 | 0.00 | 0.00 | 81 | 1020.7 |
| 20260507091544 | 4 | 0 | 0.0 | 0.0 | 0.00 | 0.00 | 0.00 | 81 | 1020.6 |
| 20260507091034 | 5 | 0 | 0.0 | 0.0 | 0.00 | 0.00 | 0.00 | 81 | 1020.6 |
| 20260507090535 | 5 | 0 | 0.0 | 0.0 | 0.00 | 0.00 | 0.00 | 81 | 1020.6 |
| 20260507090054 | 5 | 0 | 0.0 | 0.0 | 0.00 | 0.00 | 0.00 | 80 | 1020.6 |
| 20260507085534 | 5 | 0 | 0.0 | 0.0 | 0.00 | 0.00 | 0.00 | 80 | 1020.6 |
| 20260507085035 | 5 | 0 | 0.0 | 0.0 | 0.00 | 0.00 | 0.00 | 80 | 1020.6 |
| 20260507084548 | 6 | 0 | 0.0 | 0.0 | 0.00 | 0.00 | 0.00 | 80 | 1020.5 |
| 20260507084030 | 6 | 0 | 0.0 | 0.0 | 0.00 | 0.00 | 0.00 | 80 | 1020.6 |
| 20260507083529 | 6 | 0 | 0.0 | 0.0 | 0.00 | 0.00 | 0.00 | 79 | 1020.6 |
| 20260507083045 | 6 | 0 | 0.0 | 0.0 | 0.00 | 0.00 | 0.00 | 80 | 1020.7 |
| 20260507082528 | 6 | 0 | 0.0 | 0.0 | 0.00 | 0.00 | 0.00 | 79 | 1020.7 |
| 20260507082028 | 6 | 0 | 0.0 | 1.6 | 0.00 | 0.00 | 0.00 | 80 | 1020.7 |
| 20260507081544 | 6 | 0 | 0.0 | 3.2 | 0.00 | 0.00 | 0.00 | 79 | 1020.8 |
| 20260507081029 | 6 | 0 | 0.0 | 3.2 | 0.00 | 0.00 | 0.00 | 79 | 1020.6 |
| 20260507080533 | 7 | 0 | 0.0 | 1.6 | 0.00 | 0.00 | 0.00 | 79 | 1020.7 |
| 20260507080053 | 7 | 0 | 0.0 | 4.8 | 0.00 | 0.00 | 0.00 | 78 | 1020.8 |
| 20260507075529 | 7 | 0 | 0.0 | 4.8 | 0.00 | 0.00 | 0.00 | 77 | 1020.9 |
| 20260507075032 | 7 | 0 | 0.0 | 4.8 | 0.00 | 0.00 | 0.00 | 77 | 1020.7 |
| 20260507074540 | 7 | 105 | 0.0 | 6.4 | 0.00 | 0.00 | 0.00 | 76 | 1020.6 |
| 20260507074028 | 7 | 0 | 1.6 | 6.4 | 0.00 | 0.00 | 0.00 | 75 | 1020.5 |
| 20260507073536 | 7 | 0 | 0.0 | 4.8 | 0.00 | 0.00 | 0.00 | 75 | 1021.0 |
| 20260507073042 | 7 | 319 | 0.0 | 8.0 | 0.00 | 0.00 | 0.00 | 74 | 1021.7 |
| 20260507072529 | 7 | 307 | 1.6 | 8.0 | 0.00 | 0.00 | 0.00 | 73 | 1021.8 |
| 20260507072029 | 7 | 304 | 1.6 | 6.4 | 0.00 | 0.00 | 0.00 | 71 | 1021.5 |
| 20260507071549 | 7 | 49 | 0.0 | 8.0 | 0.00 | 0.00 | 0.00 | 70 | 1021.5 |
| 20260507071029 | 8 | 0 | 1.6 | 8.0 | 0.00 | 0.00 | 0.00 | 69 | 1021.5 |
| 20260507070532 | 8 | 0 | 1.6 | 8.0 | 0.00 | 0.00 | 0.00 | 68 | 1021.7 |
| 20260507065528 | 8 | 298 | 1.6 | 11.3 | 0.00 | 0.00 | 0.00 | 67 | 1022.1 |
| 20260507065028 | 8 | 336 | 3.2 | 9.7 | 0.00 | 0.00 | 0.00 | 67 | 1022.2 |
| 20260507064552 | 8 | 323 | 0.0 | 8.0 | 0.00 | 0.00 | 0.00 | 66 | 1022.0 |
| 20260507064029 | 8 | 14 | 0.0 | 8.0 | 0.00 | 0.00 | 0.00 | 65 | 1021.8 |
| 20260507063529 | 8 | 0 | 1.6 | 8.0 | 0.00 | 0.00 | 0.00 | 65 | 1021.9 |
| 20260507063044 | 8 | 19 | 0.0 | 6.4 | 0.00 | 0.00 | 0.00 | 64 | 1021.8 |
| 20260507062528 | 8 | 19 | 0.0 | 6.4 | 0.00 | 0.00 | 0.00 | 64 | 1021.7 |
| 20260507062028 | 8 | 0 | 1.6 | 6.4 | 0.00 | 0.00 | 0.00 | 64 | 1021.8 |
| 20260507061544 | 8 | 311 | 1.6 | 4.8 | 0.00 | 0.00 | 0.00 | 64 | 1021.8 |
| 20260507061033 | 8 | 77 | 0.0 | 6.4 | 0.00 | 0.00 | 0.00 | 64 | 1021.6 |
| 20260507060528 | 8 | 0 | 0.0 | 6.4 | 0.00 | 0.00 | 0.00 | 64 | 1021.4 |
| 20260507060044 | 8 | 43 | 1.6 | 6.4 | 0.00 | 0.00 | 0.00 | 64 | 1021.3 |
| 20260507055528 | 8 | 47 | 1.6 | 12.9 | 0.00 | 0.00 | 0.00 | 64 | 1021.3 |
| 20260507055029 | 8 | 53 | 1.6 | 12.9 | 0.00 | 0.00 | 0.00 | 63 | 1021.1 |
| 20260507054559 | 8 | 0 | 1.6 | 11.3 | 0.00 | 0.00 | 0.00 | 63 | 1021.1 |
| 20260507054031 | 8 | 327 | 3.2 | 11.3 | 0.00 | 0.00 | 0.00 | 63 | 1021.4 |
| 20260507053529 | 8 | 346 | 3.2 | 14.5 | 0.00 | 0.00 | 0.00 | 63 | 1021.3 |
| 20260507053038 | 8 | 25 | 1.6 | 16.1 | 0.00 | 0.00 | 0.00 | 63 | 1021.2 |
| 20260507052532 | 8 | 97 | 3.2 | 16.1 | 0.00 | 0.00 | 0.00 | 63 | 1021.1 |
| 20260507052031 | 8 | 89 | 0.0 | 8.0 | 0.00 | 0.00 | 0.00 | 63 | 1021.1 |
| 20260507051546 | 8 | 0 | 1.6 | 9.7 | 0.00 | 0.00 | 0.00 | 64 | 1021.1 |
| 20260507051029 | 8 | 0 | 1.6 | 9.7 | 0.00 | 0.00 | 0.00 | 63 | 1021.0 |
| 20260507050530 | 8 | 82 | 1.6 | 9.7 | 0.00 | 0.00 | 0.00 | 63 | 1021.0 |
| 20260507050050 | 8 | 325 | 1.6 | 14.5 | 0.00 | 0.00 | 0.00 | 62 | 1020.9 |
| 20260507045529 | 8 | 317 | 3.2 | 14.5 | 0.00 | 0.00 | 0.00 | 62 | 1021.1 |
| 20260507045029 | 8 | 288 | 3.2 | 11.3 | 0.00 | 0.00 | 0.00 | 61 | 1021.4 |
| 20260507044552 | 9 | 306 | 3.2 | 12.9 | 0.00 | 0.00 | 0.00 | 60 | 1021.4 |
| 20260507044028 | 9 | 315 | 3.2 | 12.9 | 0.00 | 0.00 | 0.00 | 60 | 1021.1 |
| 20260507043528 | 9 | 316 | 3.2 | 11.3 | 0.00 | 0.00 | 0.00 | 60 | 1021.3 |
| 20260507043047 | 9 | 5 | 3.2 | 14.5 | 0.00 | 0.00 | 0.00 | 60 | 1021.0 |
| 20260507042528 | 9 | 284 | 1.6 | 16.1 | 0.00 | 0.00 | 0.00 | 60 | 1020.9 |
| 20260507042028 | 9 | 49 | 3.2 | 16.1 | 0.00 | 0.00 | 0.00 | 59 | 1020.8 |
| 20260507041558 | 9 | 121 | 3.2 | 12.9 | 0.00 | 0.00 | 0.00 | 59 | 1020.7 |
| 20260507041033 | 9 | 30 | 1.6 | 12.9 | 0.00 | 0.00 | 0.00 | 59 | 1020.6 |
| 20260507040528 | 10 | 77 | 3.2 | 12.9 | 0.00 | 0.00 | 0.00 | 58 | 1020.4 |
| 20260507040045 | 10 | 301 | 3.2 | 14.5 | 0.00 | 0.00 | 0.00 | 58 | 1020.4 |
| 20260507035531 | 10 | 0 | 3.2 | 14.5 | 0.00 | 0.00 | 0.00 | 58 | 1020.6 |
| 20260507035029 | 10 | 317 | 3.2 | 14.5 | 0.00 | 0.00 | 0.00 | 58 | 1020.6 |
| 20260507034551 | 10 | 315 | 3.2 | 14.5 | 0.00 | 0.00 | 0.00 | 58 | 1020.5 |
| 20260507034028 | 10 | 63 | 3.2 | 17.7 | 0.00 | 0.00 | 0.00 | 57 | 1020.4 |
| 20260507033528 | 10 | 313 | 4.8 | 17.7 | 0.00 | 0.00 | 0.00 | 57 | 1020.3 |
| 20260507033045 | 10 | 346 | 3.2 | 12.9 | 0.00 | 0.00 | 0.00 | 58 | 1020.3 |
| 20260507032528 | 11 | 0 | 1.6 | 12.9 | 0.00 | 0.00 | 0.00 | 59 | 1020.2 |
| 20260507032028 | 11 | 68 | 1.6 | 12.9 | 0.00 | 0.00 | 0.00 | 59 | 1020.2 |
| 20260507031542 | 11 | 0 | 3.2 | 12.9 | 0.00 | 0.00 | 0.00 | 58 | 1020.2 |
| 20260507031028 | 11 | 304 | 3.2 | 16.1 | 0.00 | 0.00 | 0.00 | 57 | 1019.9 |
| 20260507030529 | 11 | 11 | 3.2 | 16.1 | 0.00 | 0.00 | 0.00 | 55 | 1019.7 |
| 20260507030046 | 11 | 65 | 4.8 | 14.5 | 0.00 | 0.00 | 0.00 | 54 | 1019.7 |
| 20260507025527 | 11 | 309 | 4.8 | 14.5 | 0.00 | 0.00 | 0.00 | 54 | 1019.5 |
| 20260507025029 | 11 | 255 | 3.2 | 14.5 | 0.00 | 0.00 | 0.00 | 53 | 1019.4 |
| 20260507024549 | 12 | 17 | 3.2 | 17.7 | 0.00 | 0.00 | 0.00 | 53 | 1019.4 |
| 20260507024028 | 12 | 310 | 3.2 | 20.9 | 0.00 | 0.00 | 0.00 | 52 | 1019.4 |
| 20260507023528 | 12 | 318 | 1.6 | 20.9 | 0.00 | 0.00 | 0.00 | 52 | 1018.9 |
| 20260507023044 | 12 | 291 | 4.8 | 20.9 | 0.00 | 0.00 | 0.00 | 52 | 1018.8 |
| 20260507022529 | 12 | 34 | 1.6 | 12.9 | 0.00 | 0.00 | 0.00 | 52 | 1018.7 |
| 20260507022029 | 12 | 34 | 3.2 | 12.9 | 0.00 | 0.00 | 0.00 | 52 | 1018.6 |
| 20260507021549 | 12 | 332 | 3.2 | 9.7 | 0.00 | 0.00 | 0.00 | 53 | 1018.4 |
| 20260507021028 | 12 | 286 | 1.6 | 9.7 | 0.00 | 0.00 | 0.00 | 53 | 1018.2 |
| 20260507020528 | 12 | 337 | 1.6 | 9.7 | 0.00 | 0.00 | 0.00 | 53 | 1018.2 |
| 20260507020050 | 12 | 319 | 1.6 | 11.3 | 0.00 | 0.00 | 0.00 | 53 | 1018.0 |
| 20260507015528 | 12 | 312 | 1.6 | 11.3 | 0.00 | 0.00 | 0.00 | 52 | 1017.8 |
| 20260507015029 | 12 | 0 | 0.0 | 12.9 | 0.00 | 0.00 | 0.00 | 52 | 1017.7 |
| 20260507014606 | 13 | 101 | 3.2 | 14.5 | 0.00 | 0.00 | 0.00 | 52 | 1017.2 |
| 20260507014028 | 13 | 51 | 3.2 | 14.5 | 0.00 | 0.00 | 0.00 | 52 | 1017.2 |
| 20260507013527 | 13 | 67 | 3.2 | 9.7 | 0.00 | 0.00 | 0.00 | 51 | 1016.8 |
| 20260507013048 | 13 | 121 | 1.6 | 9.7 | 0.00 | 0.00 | 0.00 | 51 | 1016.6 |
| 20260507012529 | 13 | 58 | 1.6 | 11.3 | 0.00 | 0.00 | 0.00 | 50 | 1016.2 |
| 20260507012032 | 13 | 77 | 3.2 | 16.1 | 0.00 | 0.00 | 0.00 | 50 | 1016.2 |
| 20260507011555 | 13 | 70 | 4.8 | 16.1 | 0.00 | 0.00 | 0.00 | 50 | 1016.0 |
| 20260507011028 | 13 | 38 | 4.8 | 16.1 | 0.00 | 0.00 | 0.00 | 50 | 1016.1 |
| 20260507010528 | 13 | 61 | 6.4 | 20.9 | 0.00 | 0.00 | 0.00 | 49 | 1015.9 |
| 20260507010046 | 14 | 69 | 4.8 | 20.9 | 0.00 | 0.00 | 0.00 | 49 | 1015.6 |
| 20260507005533 | 14 | 86 | 9.7 | 20.9 | 0.00 | 0.00 | 0.00 | 49 | 1015.6 |
| 20260507005028 | 14 | 41 | 4.8 | 14.5 | 0.00 | 0.00 | 0.00 | 49 | 1015.4 |
| 20260507004540 | 14 | 16 | 4.8 | 14.5 | 0.00 | 0.00 | 0.00 | 49 | 1015.5 |
| 20260507004028 | 14 | 96 | 4.8 | 16.1 | 0.00 | 0.00 | 0.00 | 49 | 1015.5 |
| 20260507003529 | 14 | 54 | 4.8 | 16.1 | 0.00 | 0.00 | 0.00 | 49 | 1015.4 |
| 20260507003038 | 15 | 31 | 3.2 | 16.1 | 0.00 | 0.00 | 0.00 | 48 | 1015.2 |
| 20260507002528 | 15 | 108 | 4.8 | 19.3 | 0.00 | 0.00 | 0.00 | 48 | 1015.2 |
| 20260507002030 | 15 | 22 | 3.2 | 19.3 | 0.00 | 0.00 | 0.00 | 48 | 1015.2 |
| 20260507001558 | 15 | 126 | 4.8 | 17.7 | 0.00 | 0.00 | 0.00 | 49 | 1015.0 |
| 20260507001027 | 15 | 51 | 6.4 | 17.7 | 0.00 | 0.00 | 0.00 | 48 | 1014.8 |
| 20260507000531 | 15 | 80 | 4.8 | 17.7 | 0.00 | 0.00 | 0.00 | 48 | 1014.8 |
| 20260507000057 | 15 | 44 | 8.0 | 24.1 | 0.00 | 0.00 | 0.00 | 48 | 1014.7 |
| 20260506235530 | 15 | 44 | 8.0 | 24.1 | 0.00 | 0.00 | 0.00 | 48 | 1014.6 |
| 20260506235028 | 15 | 88 | 9.7 | 24.1 | 0.00 | 0.00 | 0.00 | 47 | 1014.6 |
| 20260506234601 | 15 | 57 | 3.2 | 12.9 | 0.00 | 0.00 | 0.00 | 48 | 1014.5 |
| 20260506234028 | 15 | 105 | 4.8 | 19.3 | 0.00 | 0.00 | 0.00 | 48 | 1014.6 |
| 20260506233529 | 15 | 74 | 3.2 | 20.9 | 0.00 | 0.00 | 0.00 | 48 | 1014.9 |
| 20260506233048 | 15 | 56 | 8.0 | 20.9 | 0.00 | 0.00 | 0.00 | 48 | 1015.1 |
| 20260506232529 | 15 | 53 | 6.4 | 22.5 | 0.00 | 0.00 | 0.00 | 48 | 1015.0 |
| 20260506232028 | 15 | 119 | 6.4 | 22.5 | 0.00 | 0.00 | 0.00 | 48 | 1015.0 |
| 20260506231543 | 15 | 62 | 9.7 | 22.5 | 0.00 | 0.00 | 0.00 | 47 | 1014.9 |
| 20260506231029 | 15 | 55 | 6.4 | 19.3 | 0.00 | 0.00 | 0.00 | 47 | 1014.7 |
| 20260506230529 | 15 | 52 | 6.4 | 19.3 | 0.00 | 0.00 | 0.00 | 47 | 1014.7 |
| 20260506230100 | 15 | 53 | 8.0 | 19.3 | 0.00 | 0.00 | 0.00 | 47 | 1014.6 |
| 20260506225529 | 15 | 25 | 6.4 | 19.3 | 0.00 | 0.00 | 0.00 | 47 | 1014.7 |
| 20260506225028 | 15 | 317 | 4.8 | 22.5 | 0.00 | 0.00 | 0.00 | 48 | 1014.8 |
| 20260506224550 | 15 | 78 | 6.4 | 22.5 | 0.00 | 0.00 | 0.00 | 48 | 1015.0 |
| 20260506224027 | 15 | 59 | 6.4 | 25.7 | 0.00 | 0.00 | 0.00 | 49 | 1015.1 |
| 20260506223531 | 15 | 86 | 9.7 | 25.7 | 0.00 | 0.00 | 0.00 | 49 | 1015.1 |
| 20260506223044 | 15 | 54 | 11.3 | 25.7 | 0.00 | 0.00 | 0.00 | 48 | 1015.1 |
| 20260506222530 | 15 | 53 | 9.7 | 20.9 | 0.00 | 0.00 | 0.00 | 48 | 1015.1 |
| 20260506222031 | 15 | 115 | 6.4 | 24.1 | 0.00 | 0.00 | 0.00 | 49 | 1015.1 |
| 20260506221555 | 15 | 40 | 9.7 | 24.1 | 0.00 | 0.00 | 0.00 | 49 | 1015.1 |
| 20260506221028 | 15 | 59 | 8.0 | 25.7 | 0.00 | 0.00 | 0.00 | 48 | 1015.2 |
| 20260506220528 | 15 | 74 | 8.0 | 25.7 | 0.00 | 0.00 | 0.00 | 48 | 1015.0 |
| 20260506220047 | 15 | 92 | 11.3 | 25.7 | 0.00 | 0.00 | 0.00 | 48 | 1015.1 |
| 20260506215528 | 15 | 43 | 8.0 | 22.5 | 0.00 | 0.00 | 0.00 | 49 | 1015.1 |
| 20260506215028 | 15 | 50 | 8.0 | 25.7 | 0.00 | 0.00 | 0.00 | 49 | 1015.2 |
| 20260506214543 | 15 | 57 | 11.3 | 25.7 | 0.00 | 0.00 | 0.00 | 49 | 1015.4 |
| 20260506214029 | 15 | 68 | 11.3 | 25.7 | 0.00 | 0.00 | 0.00 | 48 | 1015.1 |
| 20260506213528 | 15 | 62 | 9.7 | 24.1 | 0.00 | 0.00 | 0.00 | 48 | 1015.1 |
| 20260506213044 | 15 | 103 | 11.3 | 22.5 | 0.00 | 0.00 | 0.00 | 48 | 1015.1 |
| 20260506212528 | 15 | 59 | 6.4 | 20.9 | 0.00 | 0.00 | 0.00 | 48 | 1015.3 |
| 20260506212030 | 15 | 53 | 12.9 | 22.5 | 0.00 | 0.00 | 0.00 | 47 | 1015.3 |
| 20260506211553 | 15 | 23 | 4.8 | 24.1 | 0.00 | 0.00 | 0.00 | 48 | 1015.3 |
| 20260506211028 | 15 | 80 | 6.4 | 25.7 | 0.00 | 0.00 | 0.00 | 48 | 1015.4 |
| 20260506210528 | 15 | 68 | 8.0 | 25.7 | 0.00 | 0.00 | 0.00 | 48 | 1015.4 |
| 20260506210047 | 15 | 91 | 9.7 | 20.9 | 0.00 | 0.00 | 0.00 | 48 | 1015.5 |
| 20260506205529 | 15 | 99 | 8.0 | 20.9 | 0.00 | 0.00 | 0.00 | 48 | 1015.5 |
| 20260506205029 | 15 | 78 | 3.2 | 19.3 | 0.00 | 0.00 | 0.00 | 50 | 1015.6 |
| 20260506204546 | 15 | 115 | 6.4 | 29.0 | 0.00 | 0.00 | 0.00 | 49 | 1015.7 |
| 20260506204029 | 15 | 95 | 12.9 | 29.0 | 0.00 | 0.00 | 0.00 | 48 | 1015.5 |
| 20260506203528 | 16 | 92 | 8.0 | 22.5 | 0.00 | 0.00 | 0.00 | 46 | 1015.3 |
| 20260506203044 | 16 | 63 | 6.4 | 17.7 | 0.00 | 0.00 | 0.00 | 46 | 1015.4 |
| 20260506202528 | 15 | 91 | 6.4 | 17.7 | 0.00 | 0.00 | 0.00 | 47 | 1015.4 |
| 20260506202028 | 15 | 80 | 4.8 | 22.5 | 0.00 | 0.00 | 0.00 | 47 | 1015.3 |
| 20260506201542 | 15 | 114 | 3.2 | 25.7 | 0.00 | 0.00 | 0.00 | 48 | 1015.4 |
| 20260506201027 | 15 | 67 | 6.4 | 25.7 | 0.00 | 0.00 | 0.00 | 48 | 1015.4 |
| 20260506200528 | 15 | 114 | 8.0 | 25.7 | 0.00 | 0.00 | 0.00 | 48 | 1015.3 |
| 20260506200038 | 15 | 98 | 6.4 | 19.3 | 0.00 | 0.00 | 0.00 | 49 | 1015.4 |
| 20260506195528 | 15 | 66 | 8.0 | 19.3 | 0.00 | 0.00 | 0.00 | 48 | 1015.4 |
| 20260506195028 | 15 | 28 | 8.0 | 19.3 | 0.00 | 0.00 | 0.00 | 47 | 1015.4 |
| 20260506194546 | 15 | 35 | 3.2 | 17.7 | 0.00 | 0.00 | 0.00 | 49 | 1015.6 |
| 20260506194030 | 15 | 65 | 6.4 | 19.3 | 0.00 | 0.00 | 0.00 | 49 | 1015.7 |
| 20260506193527 | 15 | 13 | 6.4 | 19.3 | 0.00 | 0.00 | 0.00 | 49 | 1015.7 |
| 20260506193051 | 15 | 109 | 6.4 | 16.1 | 0.00 | 0.00 | 0.00 | 49 | 1015.7 |
| 20260506192527 | 15 | 51 | 3.2 | 16.1 | 0.00 | 0.00 | 0.00 | 48 | 1015.8 |
| 20260506192029 | 15 | 55 | 4.8 | 16.1 | 0.00 | 0.00 | 0.00 | 47 | 1015.8 |
| 20260506191542 | 15 | 340 | 4.8 | 19.3 | 0.00 | 0.00 | 0.00 | 49 | 1015.8 |
| 20260506191030 | 15 | 59 | 3.2 | 24.1 | 0.00 | 0.00 | 0.00 | 49 | 1015.8 |
| 20260506190529 | 14 | 15 | 1.6 | 24.1 | 0.00 | 0.00 | 0.00 | 51 | 1015.9 |
| 20260506190043 | 14 | 78 | 8.0 | 24.1 | 0.00 | 0.00 | 0.00 | 49 | 1015.9 |
| 20260506185528 | 14 | 24 | 4.8 | 22.5 | 0.00 | 0.00 | 0.00 | 51 | 1015.8 |
| 20260506185031 | 14 | 94 | 6.4 | 19.3 | 0.00 | 0.00 | 0.00 | 50 | 1015.7 |
| 20260506184542 | 13 | 93 | 3.2 | 19.3 | 0.00 | 0.00 | 0.00 | 52 | 1015.9 |
| 20260506184028 | 13 | 0 | 6.4 | 19.3 | 0.00 | 0.00 | 0.00 | 52 | 1016.1 |
| 20260506183529 | 13 | 101 | 3.2 | 20.9 | 0.00 | 0.00 | 0.00 | 51 | 1016.1 |
| 20260506183038 | 13 | 38 | 6.4 | 20.9 | 0.00 | 0.00 | 0.00 | 52 | 1016.3 |
| 20260506182528 | 14 | 71 | 6.4 | 22.5 | 0.00 | 0.00 | 0.00 | 50 | 1016.3 |
| 20260506182028 | 14 | 68 | 9.7 | 22.5 | 0.00 | 0.00 | 0.00 | 50 | 1016.4 |
| 20260506181557 | 14 | 109 | 4.8 | 16.1 | 0.00 | 0.00 | 0.00 | 50 | 1016.4 |
| 20260506181030 | 13 | 45 | 4.8 | 16.1 | 0.00 | 0.00 | 0.00 | 52 | 1016.4 |
| 20260506180528 | 14 | 355 | 3.2 | 16.1 | 0.00 | 0.00 | 0.00 | 51 | 1016.6 |
| 20260506180045 | 14 | 82 | 3.2 | 16.1 | 0.00 | 0.00 | 0.00 | 50 | 1016.5 |
| 20260506175529 | 15 | 88 | 4.8 | 16.1 | 0.00 | 0.00 | 0.00 | 49 | 1016.5 |
| 20260506175029 | 14 | 82 | 1.6 | 12.9 | 0.00 | 0.00 | 0.00 | 51 | 1016.6 |
| 20260506174542 | 13 | 126 | 3.2 | 12.9 | 0.00 | 0.00 | 0.00 | 52 | 1016.6 |
| 20260506174033 | 13 | 46 | 3.2 | 11.3 | 0.00 | 0.00 | 0.00 | 52 | 1016.6 |
| 20260506173532 | 13 | 91 | 3.2 | 12.9 | 0.00 | 0.00 | 0.00 | 52 | 1016.9 |
| 20260506173112 | 13 | 16 | 4.8 | 14.5 | 0.00 | 0.00 | 0.00 | 51 | 1016.5 |
| 20260506172529 | 13 | 61 | 3.2 | 14.5 | 0.00 | 0.00 | 0.00 | 53 | 1016.6 |
| 20260506172028 | 12 | 91 | 1.6 | 11.3 | 0.00 | 0.00 | 0.00 | 53 | 1016.8 |
| 20260506171543 | 13 | 71 | 1.6 | 16.1 | 0.00 | 0.00 | 0.00 | 52 | 1016.6 |
| 20260506171028 | 13 | 144 | 3.2 | 16.1 | 0.00 | 0.00 | 0.00 | 54 | 1016.6 |
| 20260506170529 | 13 | 102 | 6.4 | 16.1 | 0.00 | 0.00 | 0.00 | 52 | 1016.8 |
| 20260506170052 | 13 | 147 | 4.8 | 16.1 | 0.00 | 0.00 | 0.00 | 54 | 1016.8 |
| 20260506165529 | 12 | 79 | 1.6 | 14.5 | 0.00 | 0.00 | 0.00 | 55 | 1016.7 |
| 20260506165030 | 12 | 78 | 1.6 | 16.1 | 0.00 | 0.00 | 0.00 | 55 | 1016.8 |
| 20260506164545 | 12 | 0 | 1.6 | 16.1 | 0.00 | 0.00 | 0.00 | 56 | 1016.8 |
| 20260506164031 | 12 | 78 | 6.4 | 16.1 | 0.00 | 0.00 | 0.00 | 53 | 1016.8 |
| 20260506163529 | 13 | 0 | 1.6 | 17.7 | 0.00 | 0.00 | 0.00 | 54 | 1016.7 |
| 20260506163053 | 12 | 56 | 3.2 | 17.7 | 0.00 | 0.00 | 0.00 | 55 | 1016.7 |
| 20260506162529 | 12 | 90 | 3.2 | 11.3 | 0.00 | 0.00 | 0.00 | 55 | 1016.7 |
| 20260506162029 | 12 | 342 | 1.6 | 11.3 | 0.00 | 0.00 | 0.00 | 56 | 1016.7 |
| 20260506161544 | 11 | 5 | 3.2 | 12.9 | 0.00 | 0.00 | 0.00 | 58 | 1016.7 |
| 20260506161029 | 11 | 98 | 4.8 | 12.9 | 0.00 | 0.00 | 0.00 | 56 | 1016.5 |
| 20260506160529 | 12 | 251 | 4.8 | 12.9 | 0.00 | 0.00 | 0.00 | 56 | 1016.4 |
| 20260506160044 | 12 | 46 | 1.6 | 11.3 | 0.00 | 0.00 | 0.00 | 57 | 1016.4 |
| 20260506155531 | 11 | 67 | 1.6 | 11.3 | 0.00 | 0.00 | 0.00 | 61 | 1016.4 |
| 20260506155032 | 10 | 40 | 3.2 | 11.3 | 0.00 | 0.00 | 0.00 | 62 | 1016.4 |
| 20260506154604 | 10 | 0 | 1.6 | 11.3 | 0.00 | 0.00 | 0.00 | 61 | 1016.4 |
| 20260506154034 | 10 | 90 | 3.2 | 11.3 | 0.00 | 0.00 | 0.00 | 61 | 1016.4 |
| 20260506153532 | 10 | 106 | 0.0 | 9.7 | 0.00 | 0.00 | 0.00 | 61 | 1016.2 |
| 20260506153038 | 10 | 0 | 0.0 | 12.9 | 0.00 | 0.00 | 0.00 | 62 | 1016.2 |
| 20260506152532 | 10 | 126 | 1.6 | 12.9 | 0.00 | 0.00 | 0.00 | 62 | 1016.2 |
| 20260506152033 | 9 | 0 | 3.2 | 12.9 | 0.00 | 0.00 | 0.00 | 64 | 1016.1 |
| 20260506151546 | 9 | 150 | 3.2 | 11.3 | 0.00 | 0.00 | 0.00 | 63 | 1016.2 |
| 20260506151033 | 9 | 0 | 3.2 | 11.3 | 0.00 | 0.00 | 0.00 | 63 | 1016.3 |
| 20260506150531 | 9 | 0 | 1.6 | 6.4 | 0.00 | 0.00 | 0.00 | 63 | 1016.3 |
| 20260506150044 | 9 | 0 | 0.0 | 9.7 | 0.00 | 0.00 | 0.00 | 64 | 1016.3 |
| 20260506145532 | 8 | 83 | 0.0 | 11.3 | 0.00 | 0.00 | 0.00 | 65 | 1016.2 |
| 20260506145033 | 8 | 84 | 1.6 | 11.3 | 0.00 | 0.00 | 0.00 | 64 | 1016.1 |
| 20260506144551 | 8 | 111 | 1.6 | 11.3 | 0.00 | 0.00 | 0.00 | 64 | 1016.0 |
| 20260506144029 | 8 | 0 | 1.6 | 11.3 | 0.00 | 0.00 | 0.00 | 64 | 1015.9 |
| 20260506143529 | 8 | 159 | 1.6 | 11.3 | 0.00 | 0.00 | 0.00 | 64 | 1015.8 |
| 20260506143041 | 8 | 70 | 1.6 | 12.9 | 0.00 | 0.00 | 0.00 | 64 | 1015.6 |
| 20260506142533 | 8 | 80 | 1.6 | 12.9 | 0.00 | 0.00 | 0.00 | 64 | 1015.5 |
| 20260506142034 | 8 | 101 | 3.2 | 12.9 | 0.00 | 0.00 | 0.00 | 63 | 1015.3 |
| 20260506141541 | 8 | 28 | 3.2 | 16.1 | 0.00 | 0.00 | 0.00 | 66 | 1015.1 |
| 20260506141033 | 8 | 77 | 3.2 | 16.1 | 0.00 | 0.00 | 0.00 | 65 | 1015.2 |
| 20260506140531 | 7 | 71 | 4.8 | 16.1 | 0.00 | 0.00 | 0.00 | 67 | 1015.5 |